FW9346 Weather Reports


time (UTC)temp
C
wind
direction
speed
KPH
gust
KPH
rain 1hr
cm
rain 24hr
cm
rain mn
cm
humidity
%
barometer
mb
20260906193051 27 76 9.7 17.7 0.00 0.00 0.00 72 1015.1
20260906191549 27 95 11.3 17.7 0.00 0.00 0.00 74 1015.1
20260906190053 27 123 9.7 17.7 0.00 0.00 0.00 75 1015.2
20260906184621 26 92 9.7 16.1 0.00 0.00 0.00 76 1015.2
20260906183053 26 156 6.4 14.5 0.00 0.00 0.00 78 1015.2
20260906181551 25 121 8.0 22.5 0.00 0.00 0.00 79 1015.4
20260906180046 25 139 11.3 22.5 0.00 0.00 0.00 80 1014.8
20260906174552 25 166 11.3 33.8 0.00 0.00 0.00 80 1015.4
20260906173057 25 217 17.7 32.2 0.00 0.00 0.00 80 1015.4
20260906171550 23 178 16.1 30.6 0.00 0.00 0.00 83 1015.5
20260906170044 23 171 8.0 20.9 0.00 0.00 0.00 85 1016.0
20260906164551 23 161 4.8 17.7 0.00 0.00 0.00 84 1016.4
20260906163051 23 192 3.2 8.0 0.00 0.00 0.00 82 1016.7
20260906161550 23 24 1.6 6.4 0.00 0.00 0.00 82 1017.3
20260906160046 23 0 0.0 4.8 0.00 0.00 0.00 83 1017.2
20260906154545 23 88 1.6 6.4 0.00 0.00 0.00 84 1017.0
20260906153053 23 44 0.0 8.0 0.00 0.00 0.00 85 1017.1
20260906151552 23 11 4.8 12.9 0.00 0.00 0.00 85 1017.2
20260906150045 23 336 4.8 16.1 0.00 0.00 0.00 84 1017.2
20260906144553 23 344 3.2 8.0 0.00 0.00 0.00 84 1016.9
20260906143050 23 360 3.2 12.9 0.00 0.00 0.00 84 1017.1
20260906141550 23 24 4.8 12.9 0.00 0.00 0.00 84 1017.1
20260906140051 23 342 4.8 11.3 0.00 0.00 0.00 84 1017.0
20260906134602 23 343 4.8 16.1 0.00 0.00 0.00 85 1017.0
20260906133056 23 338 6.4 14.5 0.00 0.00 0.00 85 1016.8
20260906131601 23 318 6.4 19.3 0.00 0.00 0.00 84 1016.7
20260906130057 23 344 9.7 17.7 0.00 0.00 0.00 84 1016.6
20260906124558 23 331 9.7 16.1 0.00 0.00 0.00 86 1016.6
20260906123054 23 308 8.0 22.5 0.00 0.00 0.00 85 1016.5
20260906121604 22 322 19.3 38.6 0.00 0.00 0.00 90 1016.5
20260906120104 22 166 1.6 8.0 0.00 0.00 0.00 90 1015.2
20260906114544 22 147 1.6 9.7 0.00 0.00 0.00 90 1015.1
20260906113056 22 138 4.8 8.0 0.00 0.00 0.00 90 1014.9
20260906111549 22 130 3.2 11.3 0.00 0.00 0.00 90 1014.5
20260906110049 22 124 4.8 11.3 0.00 0.00 0.00 90 1014.5
20260906104545 22 140 3.2 8.0 0.00 0.00 0.00 90 1014.4
20260906103052 22 124 3.2 6.4 0.00 0.00 0.00 90 1014.5
20260906101553 22 128 1.6 6.4 0.00 0.00 0.00 90 1014.5
20260906100049 21 138 3.2 6.4 0.00 0.00 0.00 90 1014.4
20260906094544 22 125 3.2 8.0 0.00 0.00 0.00 90 1014.2
20260906093056 22 133 3.2 6.4 0.00 0.00 0.00 90 1014.1
20260906091549 22 136 1.6 4.8 0.00 0.00 0.00 90 1013.9
20260906090052 22 127 1.6 6.4 0.00 0.00 0.00 89 1014.0
20260906084545 22 153 1.6 8.0 0.00 0.00 0.00 89 1014.1
20260906083044 22 149 1.6 6.4 0.00 0.00 0.00 89 1014.2
20260906081553 22 137 1.6 6.4 0.00 0.00 0.00 89 1014.1
20260906080052 22 151 1.6 8.0 0.00 0.00 0.00 89 1014.1
20260906074550 22 140 3.2 9.7 0.00 0.00 0.00 89 1014.2
20260906073055 22 135 3.2 8.0 0.00 0.00 0.00 89 1014.2
20260906071552 22 137 1.6 6.4 0.00 0.00 0.00 89 1014.2
20260906070051 22 153 1.6 8.0 0.00 0.00 0.00 89 1014.2
20260906064549 22 159 1.6 8.0 0.00 0.00 0.00 89 1014.0
20260906063056 23 134 3.2 11.3 0.00 0.00 0.00 88 1013.8
20260906061601 23 145 3.2 11.3 0.00 0.00 0.00 87 1013.9
20260906060057 23 146 3.2 11.3 0.00 0.00 0.00 86 1014.2
20260906054549 23 147 3.2 9.7 0.00 0.00 0.00 87 1014.2
20260906053055 23 125 3.2 8.0 0.00 0.00 0.00 86 1014.2
20260906051606 24 135 1.6 9.7 0.00 0.00 0.00 86 1014.2
20260906050049 24 101 1.6 6.4 0.00 0.00 0.00 85 1014.2
20260906044603 24 114 1.6 9.7 0.00 0.00 0.00 85 1014.2
20260906043053 25 138 1.6 6.4 0.00 0.00 0.00 85 1014.2
20260906041554 25 0 1.6 6.4 0.00 0.00 0.00 84 1014.1
20260906040052 25 116 3.2 11.3 0.00 0.00 0.00 84 1014.1
20260906034550 25 123 3.2 11.3 0.00 0.00 0.00 83 1014.0
20260906033056 26 192 1.6 9.7 0.00 0.00 0.00 81 1013.7
20260906031550 26 148 3.2 8.0 0.00 0.00 0.00 79 1013.7
20260906030050 27 186 4.8 14.5 0.00 0.00 0.00 77 1013.6
20260906024555 27 165 11.3 17.7 0.00 0.00 0.00 77 1013.4
20260906023053 27 175 9.7 16.1 0.00 0.00 0.00 79 1013.0
20260906021551 27 155 6.4 9.7 0.00 0.00 0.00 80 1013.0
20260906020049 27 148 3.2 9.7 0.00 0.00 0.00 79 1013.0
20260906014604 27 161 3.2 8.0 0.00 0.00 0.00 78 1012.7
20260906013054 28 244 3.2 11.3 0.00 0.00 0.00 75 1012.3
20260906011554 28 134 1.6 9.7 0.00 0.00 0.00 73 1012.1
20260906004552 30 152 1.6 8.0 0.00 0.00 0.00 69 1012.2
20260906003050 31 131 4.8 12.9 0.00 0.00 0.00 67 1012.1
20260906001549 32 167 4.8 12.9 0.00 0.00 0.00 65 1012.1
20260906000045 33 166 3.2 16.1 0.00 0.00 0.00 61 1012.0
20260905234545 33 182 11.3 24.1 0.00 0.00 0.00 59 1012.1
20260905233051 34 192 14.5 27.4 0.00 0.00 0.00 57 1011.8
20260905231548 35 168 12.9 27.4 0.00 0.00 0.00 55 1011.8
20260905230045 35 232 14.5 25.7 0.00 0.00 0.00 55 1011.6
20260905224552 35 188 14.5 25.7 0.00 0.00 0.00 55 1011.7
20260905223051 35 115 8.0 29.0 0.00 0.00 0.00 56 1011.9
20260905221547 35 128 16.1 24.1 0.00 0.00 0.00 55 1012.1
20260905220053 35 137 9.7 19.3 0.00 0.00 0.00 55 1012.2
20260905214549 35 188 12.9 24.1 0.00 0.00 0.00 56 1012.3
20260905213048 35 134 8.0 27.4 0.00 0.00 0.00 57 1012.6
20260905211553 35 193 12.9 22.5 0.00 0.00 0.00 55 1012.7
20260905210107 35 192 12.9 27.4 0.00 0.00 0.00 55 1012.9
20260905204600 34 162 9.7 22.5 0.00 0.00 0.00 58 1013.2
20260905203058 35 63 8.0 24.1 0.00 0.00 0.00 57 1013.4
20260905201552 34 109 8.0 25.7 0.00 0.00 0.00 57 1013.7
20260905200056 34 138 9.7 20.9 0.00 0.00 0.00 60 1013.8
20260905194548 33 129 12.9 20.9 0.00 0.00 0.00 61 1014.0